Wind_Speed
34 34 35 35 35 35 35 35 36 36 35 36 36 36 37 37 37 37 36 36 36 35 35 35 35 34 34 34 33 34 34 35 35 35 35 35 35 35 35 35 35 35 34
35 35 35 36 36 36 36 36 36 36 36 36 36 36 37 38 38 38 38 38 38 37 37 37 36 36 36 36 36 36 36 36 36 37 37 37 37 37 37 36 36 36 35
36 37 36 36 37 37 37 37 37 37 38 38 38 38 38 38 39 39 39 39 39 39 39 39 38 38 38 38 38 38 37 37 38 38 38 38 38 38 38 38 38 37 36
36 37 38 38 38 39 39 39 39 39 39 40 40 40 40 40 40 40 40 40 40 41 41 40 40 40 39 39 39 39 39 39 40 40 39 39 39 39 39 39 39 38 38
38 38 38 38 39 40 40 40 40 41 41 41 41 41 41 41 41 41 41 41 41 41 41 41 41 41 41 41 41 40 40 40 41 41 41 41 41 40 40 40 40 40 40
39 39 39 39 40 40 41 41 41 42 42 42 42 42 42 42 42 42 42 42 42 42 42 42 42 42 42 42 42 42 42 42 42 41 42 42 42 42 42 41 41 41 41
40 40 40 40 40 40 41 42 42 43 43 43 43 43 43 43 42 42 43 43 43 43 43 43 43 43 44 44 44 44 44 43 43 43 43 43 43 43 43 42 42 41 41
40 40 41 42 42 42 42 42 43 43 44 44 44 44 44 44 44 44 44 43 44 44 45 45 46 45 45 45 46 45 45 44 45 45 45 44 44 44 43 43 43 42 41
41 41 42 42 43 43 43 43 44 44 45 45 46 46 45 45 45 44 44 45 45 46 46 47 47 47 46 46 47 46 46 46 46 47 46 46 45 45 44 44 43 43 42
40 40 42 42 43 43 44 44 44 44 45 45 46 46 46 46 46 45 45 46 46 46 47 48 48 48 48 48 48 47 47 48 48 48 48 47 46 45 45 44 44 43 42
39 39 40 41 42 42 43 44 44 45 45 45 45 45 46 46 47 46 46 46 46 47 47 47 47 47 48 48 48 48 48 48 48 48 47 47 46 46 45 44 44 43 42
39 39 39 40 41 42 43 43 44 45 46 45 45 45 45 46 47 47 47 46 46 46 46 46 46 47 48 48 48 48 48 48 48 48 47 47 46 45 45 44 44 43 42
39 40 40 39 39 41 43 44 44 44 45 46 46 46 46 46 47 47 48 47 46 46 46 46 47 47 47 48 48 48 48 48 47 47 47 46 45 45 45 45 44 43 43
40 40 40 40 40 41 42 43 44 44 44 45 46 46 46 46 46 46 47 47 47 46 45 45 46 46 46 46 47 47 46 46 46 45 44 44 43 44 44 44 43 42 42
38 39 39 39 39 40 41 41 42 43 43 44 45 45 45 45 45 46 46 46 46 46 44 44 44 44 44 44 44 44 43 44 44 43 42 42 42 43 43 43 42 42 42
38 39 39 40 40 40 40 41 41 41 42 43 44 44 44 44 44 45 45 45 45 45 44 43 43 43 43 43 42 42 41 41 41 41 42 41 41 42 42 41 41 41 41
39 39 40 40 40 40 40 40 41 41 41 41 42 43 43 43 44 44 45 45 44 44 43 42 42 42 42 42 41 41 41 40 40 39 39 40 41 41 40 40 40 40 40
39 39 39 39 39 39 40 39 39 40 40 40 41 42 43 43 43 43 43 43 43 43 42 42 41 40 40 40 40 40 39 39 39 38 39 39 39 38 39 39 39 39 39
37 37 38 38 38 38 38 38 38 39 40 40 41 41 40 40 41 42 42 41 42 42 41 41 40 39 38 38 38 38 37 37 37 38 38 37 37 36 37 37 37 37 37
35 36 37 37 37 38 38 38 39 39 39 40 39 40 39 40 40 40 41 41 41 41 40 40 39 38 37 37 36 36 36 35 36 36 36 35 35 35 35 35 35 35 35
36 36 36 37 37 38 38 38 38 39 39 39 39 39 39 39 40 40 40 40 40 39 39 38 37 37 36 35 35 34 34 34 34 34 34 34 33 33 33 34 33 33 33
35 36 36 37 37 37 38 38 38 39 39 38 38 38 39 40 40 40 39 39 38 37 36 36 36 35 34 34 34 33 33 33 33 33 33 33 33 33 33 33 33 32 32
35 35 35 36 37 37 37 38 38 37 37 38 38 38 39 39 38 38 38 38 37 37 35 35 34 33 33 33 32 32 32 32 32 33 33 32 32 33 33 33 32 32 32
34 34 35 35 36 36 36 36 35 35 35 36 36 36 36 36 36 36 36 36 35 34 34 33 33 33 33 32 32 31 31 31 32 32 32 31 31 32 33 32 32 32 32
34 34 34 35 35 34 34 34 34 33 33 34 34 34 34 34 34 34 34 34 33 32 33 33 32 31 30 30 31 31 31 31 31 31 31 30 30 30 30 31 31 32 32
35 34 34 34 33 33 33 34 34 33 33 33 32 32 32 32 32 33 33 32 31 32 32 32 32 31 30 30 30 31 30 30 30 30 30 30 29 29 28 29 30 30 30
Wind_Direction
263 264 264 264 264 264 266 267 267 268 268 269 269 269 269 269 269 270 270 270 270 271 271 272 272 272 273 274 275 275 275 276 276 276 276 277 278 278 278 279 279 279 279
262 263 264 265 265 265 266 267 267 268 269 270 271 270 270 269 270 270 270 270 270 270 270 271 272 272 273 274 274 275 275 276 276 276 277 277 277 277 278 278 279 279 279
262 263 264 264 265 265 266 267 267 268 270 271 272 272 272 271 270 269 270 271 271 270 270 270 270 271 273 273 274 274 275 276 276 277 278 278 278 278 277 278 278 278 278
265 265 265 265 265 265 266 267 267 269 270 271 271 272 272 271 271 271 271 271 271 271 270 270 270 271 271 272 273 274 275 275 275 276 277 278 279 278 278 277 277 277 277
265 267 267 267 266 266 266 267 267 269 270 270 270 271 270 271 271 271 271 271 272 271 270 270 271 271 271 272 273 273 275 276 276 276 276 277 278 278 278 278 277 277 276
265 266 267 268 267 267 267 267 268 269 269 269 270 270 270 270 271 271 271 271 271 271 271 270 271 270 271 272 273 273 275 275 276 277 277 278 278 278 278 278 278 277 276
265 266 267 267 268 268 269 269 269 270 269 269 269 269 269 270 270 271 271 271 271 270 271 270 271 271 271 272 273 273 274 275 275 277 277 278 278 278 278 277 277 277 277
267 267 267 267 268 269 269 270 271 270 269 269 269 269 269 269 269 270 270 271 271 271 270 270 270 271 271 271 272 273 273 273 275 276 277 277 278 278 276 276 276 276 276
268 268 268 269 269 270 270 270 271 271 270 270 270 269 269 268 268 269 270 271 271 271 271 271 270 270 271 271 272 272 273 274 275 275 276 277 277 276 275 274 275 275 275
269 270 269 269 269 269 270 271 272 272 271 271 271 271 270 269 268 268 268 270 271 272 272 271 269 270 271 271 272 272 273 273 275 274 275 276 275 275 274 275 274 274 274
270 270 271 270 271 271 271 271 272 272 272 272 271 271 270 270 270 270 269 269 271 272 273 272 271 271 272 272 272 272 272 274 275 275 275 275 274 273 273 273 273 273 274
270 271 272 272 272 272 271 272 272 272 272 271 271 272 272 272 272 271 270 271 271 272 273 273 272 272 272 272 272 272 273 274 275 276 275 274 273 272 271 272 272 273 274
270 271 273 273 274 273 273 273 273 273 272 271 272 272 273 274 274 273 272 272 272 272 273 273 273 272 272 273 273 273 273 274 275 275 274 274 272 271 270 270 272 272 273
272 273 274 275 275 276 275 274 274 273 273 273 273 273 273 273 274 273 273 273 273 273 273 274 274 274 274 274 274 273 273 274 274 274 273 272 271 270 269 270 271 272 272
272 273 274 275 276 277 277 277 275 274 274 274 274 273 273 273 273 273 274 274 274 274 273 274 274 274 274 274 273 273 273 273 273 273 272 272 271 271 271 271 271 272 272
273 274 274 275 277 278 279 278 277 277 275 275 274 273 273 273 274 274 274 274 275 275 275 275 274 274 274 274 273 273 273 273 273 273 272 272 272 272 272 272 273 273 272
273 274 274 275 277 278 279 279 279 278 278 276 274 273 273 273 274 274 273 273 274 275 276 275 276 274 273 273 274 274 273 272 273 273 273 273 273 273 273 273 273 273 272
273 274 274 276 277 278 279 279 280 280 279 278 275 273 273 274 274 273 273 273 274 275 276 276 276 275 273 273 273 273 273 272 273 273 273 273 273 273 273 273 274 273 271
274 274 274 276 276 277 278 279 279 280 279 279 277 275 274 274 274 274 273 273 274 275 276 277 276 274 274 273 273 274 274 273 273 275 274 272 272 273 273 273 274 273 271
275 275 276 277 277 277 278 279 279 279 280 278 277 275 274 273 274 274 274 274 275 275 276 277 275 273 274 274 274 274 273 274 273 275 273 272 272 272 273 274 275 274 271
276 277 278 278 278 278 278 279 280 280 280 278 276 275 274 274 274 274 274 275 276 276 276 276 274 273 274 274 273 272 272 273 274 275 273 272 272 272 273 274 274 273 271
277 278 279 279 280 279 280 280 281 280 280 278 276 274 274 273 274 273 273 275 276 276 276 275 272 272 273 273 273 272 272 273 273 273 273 274 273 272 273 273 273 271 270
278 279 280 280 280 281 281 282 282 282 282 279 277 275 274 273 272 272 272 273 274 274 274 273 271 271 271 272 272 271 272 273 273 272 271 273 274 275 274 273 272 271 270
280 281 282 281 282 282 282 282 283 284 284 281 279 278 276 274 272 272 271 272 273 272 272 272 271 270 270 270 270 271 271 273 272 271 272 273 274 275 274 272 272 272 271
281 282 283 283 282 282 282 282 283 285 284 283 282 280 278 274 273 273 272 272 272 271 271 272 271 269 269 269 270 271 272 273 271 270 271 273 274 273 272 273 273 273 272
281 282 283 283 282 281 282 282 283 284 284 283 282 281 279 276 273 272 273 272 272 271 269 270 270 269 269 270 271 272 272 272 270 269 270 272 273 273 273 274 274 272 272
Height
5775 5776 5777 5777 5778 5778 5779 5779 5780 5780 5781 5781 5782 5782 5783 5783 5783 5784 5784 5784 5785 5785 5785 5785 5785 5785 5785 5785 5784 5784 5784 5784 5784 5783 5783 5783 5782 5781 5780 5780 5779 5778 5777
5767 5768 5769 5769 5770 5770 5771 5771 5772 5772 5773 5773 5773 5773 5773 5774 5774 5775 5775 5775 5776 5776 5776 5776 5777 5777 5777 5777 5776 5776 5776 5775 5775 5775 5774 5774 5773 5772 5771 5771 5770 5769 5768
5759 5760 5760 5761 5762 5762 5762 5763 5764 5764 5764 5764 5765 5765 5765 5765 5765 5765 5766 5766 5766 5767 5767 5767 5767 5768 5768 5767 5767 5767 5767 5766 5766 5766 5765 5764 5763 5762 5762 5761 5760 5759 5759
5750 5751 5752 5752 5753 5753 5753 5754 5755 5755 5755 5755 5755 5755 5755 5755 5755 5756 5756 5756 5756 5757 5757 5757 5758 5758 5758 5758 5758 5758 5757 5757 5756 5756 5755 5755 5754 5753 5752 5751 5750 5750 5749
5741 5742 5742 5743 5743 5744 5744 5745 5745 5746 5746 5746 5746 5746 5746 5746 5746 5746 5746 5746 5746 5747 5747 5747 5748 5748 5748 5748 5748 5748 5748 5747 5746 5746 5745 5745 5744 5743 5742 5741 5740 5739 5739
5732 5733 5733 5734 5734 5734 5735 5735 5735 5735 5736 5736 5736 5736 5736 5736 5736 5736 5736 5736 5736 5736 5737 5737 5737 5738 5738 5738 5737 5737 5737 5737 5736 5735 5735 5734 5733 5732 5731 5730 5729 5728 5727
5723 5723 5724 5724 5725 5725 5725 5725 5725 5725 5725 5725 5726 5726 5726 5726 5726 5726 5726 5726 5726 5726 5726 5726 5726 5727 5727 5727 5726 5726 5726 5726 5725 5725 5724 5723 5722 5721 5720 5719 5718 5717 5716
5713 5713 5714 5714 5715 5715 5715 5715 5715 5714 5714 5714 5715 5715 5716 5717 5716 5715 5715 5715 5715 5715 5715 5715 5715 5715 5716 5716 5715 5715 5715 5715 5714 5714 5713 5712 5711 5710 5709 5708 5707 5706 5706
5703 5703 5703 5704 5704 5704 5704 5704 5704 5704 5704 5703 5703 5703 5704 5705 5705 5706 5705 5704 5704 5704 5703 5703 5703 5703 5704 5704 5704 5703 5703 5703 5702 5702 5701 5700 5699 5698 5697 5696 5696 5695 5695
5693 5693 5693 5693 5693 5693 5694 5693 5693 5693 5693 5693 5692 5692 5692 5692 5693 5694 5695 5693 5693 5692 5691 5691 5691 5691 5691 5691 5691 5691 5690 5690 5690 5689 5688 5687 5686 5686 5685 5685 5684 5684 5684
5683 5683 5683 5683 5683 5683 5683 5683 5682 5682 5682 5681 5681 5681 5681 5680 5680 5681 5683 5682 5681 5680 5679 5678 5678 5678 5678 5678 5678 5678 5677 5677 5677 5676 5675 5674 5674 5673 5673 5673 5673 5673 5672
5673 5673 5673 5673 5673 5673 5672 5672 5671 5671 5670 5670 5670 5669 5669 5669 5669 5669 5669 5670 5669 5669 5667 5666 5666 5665 5665 5665 5665 5665 5665 5664 5663 5663 5662 5661 5661 5660 5660 5660 5660 5661 5661
5664 5664 5663 5663 5663 5662 5661 5661 5660 5660 5659 5659 5658 5658 5658 5657 5657 5656 5656 5656 5657 5657 5656 5654 5654 5653 5652 5652 5652 5651 5651 5651 5650 5649 5649 5648 5648 5648 5648 5648 5648 5648 5648
5654 5654 5653 5653 5652 5651 5650 5649 5649 5648 5648 5647 5647 5647 5646 5645 5645 5644 5644 5643 5644 5645 5644 5643 5641 5640 5640 5639 5639 5638 5638 5638 5637 5636 5636 5635 5635 5635 5635 5635 5636 5636 5636
5644 5643 5643 5642 5642 5641 5640 5639 5638 5637 5637 5636 5635 5635 5634 5634 5633 5632 5631 5631 5631 5632 5633 5632 5630 5629 5627 5627 5626 5626 5626 5625 5625 5624 5624 5623 5623 5623 5623 5623 5623 5623 5623
5633 5633 5633 5632 5631 5630 5629 5628 5627 5626 5625 5624 5623 5623 5622 5622 5621 5620 5619 5619 5618 5619 5620 5620 5618 5617 5616 5615 5615 5614 5614 5613 5613 5613 5612 5612 5612 5612 5612 5611 5611 5611 5611
5623 5622 5622 5621 5621 5620 5618 5617 5616 5615 5614 5613 5612 5611 5610 5609 5609 5608 5608 5607 5607 5607 5607 5608 5606 5605 5604 5604 5603 5603 5603 5602 5602 5601 5601 5600 5600 5600 5600 5600 5599 5599 5599
5612 5612 5611 5611 5610 5609 5608 5606 5605 5604 5603 5602 5601 5600 5599 5597 5597 5596 5596 5596 5596 5595 5595 5595 5595 5594 5594 5593 5593 5593 5592 5592 5591 5590 5590 5589 5589 5589 5588 5588 5588 5587 5587
5602 5601 5601 5600 5599 5598 5597 5596 5595 5593 5592 5591 5590 5588 5587 5586 5586 5585 5585 5585 5584 5584 5583 5583 5583 5583 5583 5583 5582 5582 5581 5581 5580 5579 5579 5579 5579 5578 5578 5577 5577 5576 5576
5592 5591 5591 5590 5589 5588 5586 5585 5584 5583 5581 5580 5578 5577 5577 5576 5575 5574 5574 5574 5573 5573 5572 5572 5572 5572 5572 5572 5572 5572 5571 5571 5570 5569 5569 5568 5568 5568 5568 5567 5567 5566 5566
5582 5581 5581 5580 5578 5577 5576 5574 5573 5572 5570 5568 5567 5566 5565 5565 5564 5564 5564 5563 5563 5562 5561 5561 5561 5561 5562 5562 5562 5562 5561 5561 5560 5560 5559 5559 5559 5558 5558 5558 5557 5557 5556
5572 5571 5570 5569 5568 5566 5565 5563 5562 5560 5558 5557 5555 5555 5554 5553 5553 5553 5552 5552 5552 5551 5551 5550 5551 5551 5552 5552 5552 5551 5551 5551 5552 5551 5550 5550 5549 5549 5549 5548 5548 5547 5547
5562 5561 5560 5559 5557 5555 5554 5552 5550 5549 5547 5545 5544 5543 5543 5542 5542 5541 5541 5541 5541 5540 5540 5541 5541 5542 5542 5542 5542 5542 5541 5541 5541 5541 5540 5541 5540 5540 5539 5538 5538 5538 5537
5552 5551 5550 5548 5546 5545 5543 5541 5539 5538 5536 5534 5533 5532 5531 5531 5531 5531 5531 5531 5531 5530 5530 5531 5532 5532 5532 5532 5532 5533 5532 5532 5531 5531 5531 5532 5531 5530 5529 5529 5529 5528 5528
5542 5541 5539 5538 5536 5534 5532 5531 5529 5527 5526 5524 5523 5522 5521 5521 5521 5520 5521 5521 5521 5521 5521 5521 5522 5522 5522 5522 5523 5523 5522 5522 5522 5522 5522 5522 5522 5521 5521 5520 5520 5519 5518
5532 5531 5529 5527 5526 5524 5522 5521 5519 5518 5516 5515 5514 5512 5511 5511 5510 5510 5511 5512 5512 5512 5512 5512 5512 5513 5513 5513 5513 5513 5513 5513 5513 5514 5513 5512 5512 5512 5513 5512 5511 5510 5509